| time (UTC) | temp C | wind direction | speed KPH | gust KPH | rain 1hr cm | rain 24hr cm | rain mn cm | humidity % | barometer mb |
| 20260506202749 | 10 | 12 | 0.0 | 3.2 | 0.00 | 0.00 | 0.00 | 83 | 1011.8 |
| 20260506201237 | 10 | 3 | 6.4 | 11.3 | 0.00 | 0.00 | 0.00 | 84 | 1011.8 |
| 20260506195724 | 10 | 10 | 0.0 | 0.0 | 0.00 | 0.00 | 0.00 | 84 | 1011.8 |
| 20260506194212 | 10 | 4 | 3.2 | 6.4 | 0.00 | 0.00 | 0.00 | 85 | 1011.8 |
| 20260506192701 | 10 | 345 | 0.0 | 3.2 | 0.00 | 0.00 | 0.00 | 85 | 1011.5 |
| 20260506191149 | 10 | 7 | 8.0 | 11.3 | 0.00 | 0.00 | 0.00 | 85 | 1011.5 |
| 20260506185636 | 10 | 15 | 0.0 | 3.2 | 0.00 | 0.00 | 0.00 | 85 | 1011.1 |
| 20260506184125 | 10 | 129 | 0.0 | 3.2 | 0.00 | 0.00 | 0.00 | 83 | 1011.1 |
| 20260506182612 | 10 | 355 | 9.7 | 16.1 | 0.00 | 0.00 | 0.00 | 80 | 1010.8 |
| 20260506181100 | 11 | 354 | 12.9 | 16.1 | 0.00 | 0.00 | 0.00 | 78 | 1010.8 |
| 20260506175548 | 11 | 354 | 16.1 | 19.3 | 0.00 | 0.00 | 0.00 | 76 | 1010.4 |
| 20260506174036 | 11 | 32 | 9.7 | 16.1 | 0.00 | 0.00 | 0.00 | 74 | 1010.1 |
| 20260506172524 | 11 | 4 | 16.1 | 19.3 | 0.00 | 0.00 | 0.00 | 73 | 1010.1 |
| 20260506171012 | 11 | 37 | 4.8 | 6.4 | 0.00 | 0.00 | 0.00 | 73 | 1010.1 |
| 20260506165500 | 11 | 19 | 16.1 | 19.3 | 0.00 | 0.00 | 0.00 | 72 | 1009.8 |
| 20260506163948 | 12 | 10 | 19.3 | 27.4 | 0.00 | 0.00 | 0.00 | 71 | 1009.4 |
| 20260506162436 | 12 | 15 | 14.5 | 19.3 | 0.00 | 0.00 | 0.00 | 67 | 1009.4 |
| 20260506160924 | 13 | 338 | 20.9 | 27.4 | 0.00 | 0.00 | 0.00 | 63 | 1009.4 |
| 20260506155412 | 13 | 33 | 12.9 | 22.5 | 0.00 | 0.00 | 0.00 | 64 | 1009.1 |
| 20260506153900 | 13 | 267 | 12.9 | 16.1 | 0.00 | 0.00 | 0.00 | 64 | 1009.1 |
| 20260506152348 | 13 | 334 | 16.1 | 19.3 | 0.00 | 0.00 | 0.00 | 65 | 1009.1 |
| 20260506150836 | 13 | 331 | 17.7 | 22.5 | 0.00 | 0.00 | 0.00 | 65 | 1009.1 |
| 20260506145324 | 13 | 20 | 9.7 | 11.3 | 0.00 | 0.00 | 0.00 | 67 | 1009.1 |
| 20260506143812 | 13 | 21 | 11.3 | 16.1 | 0.00 | 0.00 | 0.00 | 66 | 1009.1 |
| 20260506142300 | 13 | 315 | 17.7 | 22.5 | 0.00 | 0.00 | 0.00 | 65 | 1008.8 |
| 20260506140748 | 13 | 14 | 14.5 | 22.5 | 0.00 | 0.00 | 0.00 | 61 | 1008.8 |
| 20260506135236 | 13 | 25 | 14.5 | 19.3 | 0.00 | 0.00 | 0.00 | 62 | 1008.8 |
| 20260506133724 | 13 | 342 | 11.3 | 16.1 | 0.00 | 0.00 | 0.00 | 60 | 1008.8 |
| 20260506132212 | 13 | 319 | 6.4 | 16.1 | 0.00 | 0.00 | 0.00 | 64 | 1009.1 |
| 20260506130700 | 13 | 345 | 16.1 | 19.3 | 0.00 | 0.00 | 0.00 | 66 | 1008.8 |
| 20260506125148 | 13 | 10 | 14.5 | 19.3 | 0.00 | 0.00 | 0.00 | 65 | 1009.1 |
| 20260506123636 | 13 | 5 | 11.3 | 16.1 | 0.00 | 0.00 | 0.00 | 66 | 1008.8 |
| 20260506122124 | 13 | 348 | 24.1 | 32.2 | 0.00 | 0.00 | 0.00 | 67 | 1008.8 |
| 20260506120612 | 13 | 319 | 17.7 | 22.5 | 0.00 | 0.00 | 0.00 | 70 | 1008.8 |
| 20260506115100 | 13 | 2 | 14.5 | 19.3 | 0.00 | 0.00 | 0.00 | 70 | 1008.4 |
| 20260506113548 | 12 | 22 | 12.9 | 19.3 | 0.00 | 0.00 | 0.00 | 71 | 1008.8 |
| 20260506112036 | 12 | 330 | 4.8 | 6.4 | 0.00 | 0.00 | 0.00 | 75 | 1008.8 |
| 20260506110524 | 12 | 332 | 16.1 | 19.3 | 0.00 | 0.00 | 0.00 | 78 | 1008.8 |
| 20260506105012 | 12 | 319 | 9.7 | 16.1 | 0.00 | 0.00 | 0.00 | 83 | 1009.1 |
| 20260506103500 | 12 | 332 | 3.2 | 6.4 | 0.00 | 0.00 | 0.00 | 84 | 1008.8 |
| 20260506101948 | 12 | 24 | 8.0 | 11.3 | 0.00 | 0.00 | 0.00 | 85 | 1008.8 |
| 20260506100436 | 11 | 359 | 6.4 | 11.3 | 0.00 | 0.00 | 0.00 | 87 | 1008.8 |
| 20260506094924 | 11 | 327 | 1.6 | 11.3 | 0.00 | 0.00 | 0.00 | 88 | 1008.8 |
| 20260506093412 | 10 | 5 | 9.7 | 16.1 | 0.00 | 0.00 | 0.00 | 88 | 1009.1 |
| 20260506091900 | 10 | 344 | 6.4 | 6.4 | 0.00 | 0.00 | 0.00 | 90 | 1008.8 |
| 20260506090348 | 10 | 310 | 9.7 | 11.3 | 0.00 | 0.00 | 0.00 | 91 | 1008.8 |
| 20260506084836 | 9 | 331 | 9.7 | 16.1 | 0.00 | 0.00 | 0.00 | 93 | 1008.8 |
| 20260506083324 | 8 | 355 | 11.3 | 16.1 | 0.00 | 0.00 | 0.00 | 95 | 1008.8 |
| 20260506081812 | 8 | 348 | 8.0 | 16.1 | 0.00 | 0.00 | 0.00 | 97 | 1008.8 |
| 20260506080300 | 8 | 335 | 9.7 | 16.1 | 0.00 | 0.00 | 0.00 | 97 | 1008.4 |
| 20260506073236 | 8 | 345 | 4.8 | 16.1 | 0.00 | 0.00 | 0.00 | 98 | 1008.8 |
| 20260506071724 | 8 | 344 | 8.0 | 11.3 | 0.00 | 0.00 | 0.00 | 98 | 1008.8 |
| 20260506070212 | 8 | 286 | 4.8 | 6.4 | 0.00 | 0.00 | 0.00 | 98 | 1008.8 |
| 20260506061636 | 8 | 346 | 11.3 | 16.1 | 0.00 | 0.00 | 0.00 | 98 | 1008.1 |
| 20260506060123 | 8 | 346 | 12.9 | 19.3 | 0.00 | 0.00 | 0.00 | 98 | 1008.1 |
| 20260506044523 | 8 | 349 | 4.8 | 6.4 | 0.00 | 0.00 | 0.00 | 97 | 1008.1 |
| 20260506043012 | 8 | 333 | 11.3 | 16.1 | 0.00 | 0.00 | 0.00 | 97 | 1008.1 |
| 20260506041500 | 8 | 39 | 9.7 | 16.1 | 0.00 | 0.00 | 0.00 | 97 | 1008.1 |
| 20260506035947 | 8 | 349 | 8.0 | 11.3 | 0.00 | 0.00 | 0.00 | 97 | 1008.4 |
| 20260506034435 | 8 | 359 | 9.7 | 16.1 | 0.00 | 0.00 | 0.00 | 97 | 1007.7 |
| 20260506032923 | 8 | 352 | 9.7 | 11.3 | 0.00 | 0.00 | 0.00 | 97 | 1007.7 |
| 20260506031411 | 8 | 349 | 6.4 | 11.3 | 0.00 | 0.00 | 0.00 | 96 | 1008.1 |
| 20260506025859 | 8 | 324 | 3.2 | 6.4 | 0.00 | 0.00 | 0.00 | 96 | 1008.4 |
| 20260506024347 | 8 | 342 | 4.8 | 6.4 | 0.00 | 0.00 | 0.00 | 95 | 1008.4 |
| 20260506022835 | 8 | 327 | 16.1 | 19.3 | 0.00 | 0.00 | 0.00 | 95 | 1008.4 |
| 20260506021323 | 8 | 337 | 9.7 | 11.3 | 0.00 | 0.00 | 0.00 | 94 | 1008.4 |
| 20260506015811 | 8 | 348 | 8.0 | 11.3 | 0.00 | 0.00 | 0.00 | 94 | 1008.4 |
| 20260506014259 | 8 | 328 | 8.0 | 11.3 | 0.00 | 0.00 | 0.00 | 94 | 1008.4 |
| 20260506012747 | 8 | 351 | 9.7 | 11.3 | 0.00 | 0.00 | 0.00 | 94 | 1008.4 |
| 20260506011236 | 8 | 340 | 3.2 | 6.4 | 0.00 | 0.00 | 0.00 | 94 | 1008.4 |
| 20260506005723 | 8 | 331 | 6.4 | 11.3 | 0.00 | 0.00 | 0.00 | 95 | 1008.4 |
| 20260506004211 | 8 | 318 | 1.6 | 3.2 | 0.00 | 0.00 | 0.00 | 95 | 1008.8 |
| 20260506002659 | 8 | 338 | 1.6 | 3.2 | 0.00 | 0.00 | 0.00 | 96 | 1008.8 |
| 20260506001147 | 8 | 328 | 4.8 | 6.4 | 0.00 | 0.00 | 0.00 | 95 | 1008.8 |
| 20260505235635 | 8 | 357 | 3.2 | 3.2 | 0.00 | 0.00 | 0.00 | 95 | 1009.1 |
| 20260505234123 | 8 | 353 | 8.0 | 16.1 | 0.00 | 0.00 | 0.00 | 96 | 1008.8 |
| 20260505232611 | 9 | 12 | 8.0 | 11.3 | 0.00 | 0.00 | 0.00 | 96 | 1008.8 |
| 20260505231059 | 9 | 322 | 3.2 | 6.4 | 0.00 | 0.00 | 0.00 | 96 | 1009.1 |
| 20260505225547 | 9 | 310 | 4.8 | 6.4 | 0.00 | 0.00 | 0.00 | 96 | 1009.1 |
| 20260505224035 | 9 | 341 | 1.6 | 3.2 | 0.00 | 0.00 | 0.00 | 96 | 1009.1 |
| 20260505222523 | 10 | 15 | 0.0 | 3.2 | 0.00 | 0.00 | 0.00 | 96 | 1009.1 |
| 20260505221011 | 10 | 12 | 0.0 | 0.0 | 0.00 | 0.00 | 0.00 | 96 | 1009.1 |
| 20260505215459 | 10 | 5 | 0.0 | 0.0 | 0.00 | 0.00 | 0.00 | 96 | 1009.4 |
| 20260505213947 | 10 | 354 | 0.0 | 0.0 | 0.00 | 0.00 | 0.00 | 95 | 1009.4 |
| 20260505212435 | 10 | 341 | 0.0 | 0.0 | 0.00 | 0.00 | 0.00 | 95 | 1009.1 |
| 20260505210923 | 10 | 351 | 0.0 | 0.0 | 0.00 | 0.00 | 0.00 | 94 | 1009.4 |
| 20260505205411 | 10 | 7 | 0.0 | 0.0 | 0.00 | 0.00 | 0.00 | 93 | 1009.4 |